Mobile Downtown, AL

8:33 PM CST on February 25, 2018 (GMT -0600)
Mobile Downtown

Weather History for KBFM - May, 2013

Change the Weather History Date:

Sunday, May 5, 2013

  Actual Average Record
Temperature  
Mean Temperature 58 °F -  
Max Temperature 69 °F 79 °F 89 °F (2002)
Min Temperature 48 °F 61 °F 46 °F (1997)
Degree Days  
Heating Degree Days 6    
Growing Degree Days 8 (Base 50)    
Moisture  
Dew Point 45 °F    
Average Humidity 62    
Maximum Humidity 93    
Minimum Humidity 38    
Precipitation  
Precipitation 0.00 in - - ()
Sea Level Pressure  
Sea Level Pressure 29.93 in    
Wind  
Wind Speed 6 mph (WNW)    
Max Wind Speed 20 mph    
Max Gust Speed 28 mph    
Visibility 10 miles    
Events      
Averages and records for this station are not official NWS values.
T = Trace of Precipitation, MM = Missing Value Source: NWS Daily Summary

Daily Weather History Graph

Daily Weather History Graph

Search for Another Location

Airport or City:

Trip Planner

Search our weather history database for the weather conditions in past years. The results will help you decide how hot, cold, wet, or windy it might be!

Date:

Astronomy

May. 05, 2013 Rise Set
Actual Time 6:04 AM CDT 7:33 PM CDT
Civil Twilight 5:39 AM CDT 7:59 PM CDT
Nautical Twilight 5:08 AM CDT 8:30 PM CDT
Astronomical Twilight 4:36 AM CDT 9:02 PM CDT
Moon 3:17 AM CDT (5/5) 3:47 PM CDT (5/5)
Length of Visible Light 14h 20m
Length of Day
13h 28m
Waning Crescent, 18% of the Moon is Illuminated
May 5
Waning Crescent
May 9
New
May 17
First Quarter
May 24
Full
May 31
Last Quarter

Hourly Weather History & Observations

Time (CDT) Temp. Dew Point Humidity Pressure Visibility Wind Dir Wind Speed Gust Speed Precip Events Conditions
12:53 AM 48.9 °F 46.9 °F 93% 29.93 in 10.0 mi WSW 3.5 mph - N/A   Clear
1:53 AM 51.1 °F 46.9 °F 86% 29.92 in 10.0 mi WSW 4.6 mph - N/A   Clear
2:53 AM 48.9 °F 46.9 °F 93% 29.91 in 10.0 mi Calm Calm - N/A   Scattered Clouds
3:53 AM 50.0 °F 48.0 °F 93% 29.90 in 10.0 mi Calm Calm - N/A   Clear
4:53 AM 57.9 °F 51.1 °F 78% 29.88 in 10.0 mi Calm Calm - N/A   Overcast
5:53 AM 57.9 °F 51.1 °F 78% 29.88 in 10.0 mi SSW 4.6 mph - N/A   Partly Cloudy
6:53 AM 60.1 °F 54.0 °F 80% 29.89 in 10.0 mi Calm Calm - N/A   Scattered Clouds
7:53 AM 64.0 °F 55.9 °F 75% 29.90 in 10.0 mi West 6.9 mph - N/A   Scattered Clouds
8:53 AM 64.9 °F 51.1 °F 61% 29.90 in 10.0 mi West 10.4 mph - N/A   Partly Cloudy
9:53 AM 66.9 °F 42.1 °F 40% 29.90 in 10.0 mi West 6.9 mph 18.4 mph N/A   Partly Cloudy
10:53 AM 69.1 °F 43.0 °F 39% 29.90 in 10.0 mi West 11.5 mph 18.4 mph N/A   Partly Cloudy
11:53 AM 68.0 °F 46.9 °F 47% 29.91 in 10.0 mi WNW 15.0 mph 21.9 mph N/A   Clear
1:53 PM 66.9 °F 43.0 °F 42% 29.91 in 10.0 mi WNW 15.0 mph 21.9 mph N/A   Scattered Clouds
2:53 PM 66.0 °F 41.0 °F 40% 29.91 in 10.0 mi WNW 12.7 mph 23.0 mph N/A   Scattered Clouds
3:53 PM 66.0 °F 39.9 °F 38% 29.91 in 10.0 mi West 13.8 mph 27.6 mph N/A   Partly Cloudy
4:53 PM 64.9 °F 39.0 °F 39% 29.92 in 10.0 mi WNW 12.7 mph 24.2 mph N/A   Scattered Clouds
5:53 PM 61.0 °F 39.0 °F 44% 29.93 in 10.0 mi NW 19.6 mph 25.3 mph N/A   Scattered Clouds
6:53 PM 60.1 °F 39.0 °F 46% 29.95 in 10.0 mi NNW 17.3 mph - N/A   Partly Cloudy
7:53 PM 57.0 °F 39.9 °F 53% 29.97 in 10.0 mi NW 8.1 mph - N/A   Scattered Clouds
8:53 PM 55.0 °F 41.0 °F 59% 29.99 in 10.0 mi WNW 5.8 mph - N/A   Clear
9:53 PM 54.0 °F 42.1 °F 64% 30.01 in 10.0 mi WNW 4.6 mph - N/A   Clear
10:53 PM 53.1 °F 43.0 °F 69% 30.03 in 10.0 mi WNW 6.9 mph - N/A   Clear
11:53 PM 51.1 °F 44.1 °F 77% 30.02 in 10.0 mi WNW 3.5 mph - N/A   Clear